FW9692 Weather Reports


time (UTC)temp
F
wind
direction
speed
knots
gust
knots
rain 1hr
in
rain 24hr
in
rain mn
in
humidity
%
barometer
mb
20260901214515 94 98 5.2 20.0 0.00 0.00 0.00 29 998.7
20260901213014 94 123 13.0 17.4 0.00 0.00 0.00 29 998.8
20260901211513 94 77 7.8 12.2 0.00 0.00 0.00 30 999.1
20260901210009 94 118 10.4 20.0 0.00 0.00 0.00 30 999.3
20260901204503 95 133 11.3 17.4 0.00 0.00 0.00 30 999.6
20260901203123 94 51 8.7 21.7 0.00 0.00 0.00 31 1000.0
20260901201556 94 121 7.0 10.4 0.00 0.00 0.00 31 1000.2
20260901194502 93 105 5.2 14.8 0.00 0.00 0.00 32 1000.5
20260901193059 93 130 7.0 13.9 0.00 0.00 0.00 32 1000.6
20260901191556 92 111 4.3 12.2 0.00 0.00 0.00 33 1000.9
20260901190106 92 113 7.8 20.0 0.00 0.00 0.00 33 1001.1
20260901184530 92 279 1.7 12.2 0.00 0.00 0.00 34 1001.4
20260901183038 92 144 10.4 14.8 0.00 0.00 0.00 34 1001.6
20260901181559 91 146 4.3 13.0 0.00 0.00 0.00 35 1001.7
20260901180054 90 44 0.9 12.2 0.00 0.00 0.00 36 1001.9
20260901174551 89 211 7.0 12.2 0.00 0.00 0.00 37 1002.1
20260901173105 89 137 5.2 10.4 0.00 0.00 0.00 37 1002.1
20260901171548 89 194 5.2 10.4 0.00 0.00 0.00 37 1002.4
20260901170058 88 184 7.0 13.0 0.00 0.00 0.00 39 1002.5
20260901164605 87 202 7.0 11.3 0.00 0.00 0.00 40 1002.4
20260901163049 86 173 9.6 13.9 0.00 0.00 0.00 42 1002.5
20260901161529 86 160 7.8 13.0 0.00 0.00 0.00 43 1002.5
20260901160031 86 189 7.0 10.4 0.00 0.00 0.00 43 1002.5
20260901154528 85 210 3.5 7.0 0.00 0.00 0.00 45 1002.6
20260901153036 84 178 3.5 6.1 0.00 0.00 0.00 46 1002.5
20260901151522 83 189 4.3 7.0 0.00 0.00 0.00 49 1002.4
20260901150015 81 157 5.2 7.8 0.00 0.00 0.00 52 1002.5
20260901144524 80 178 6.1 8.7 0.00 0.00 0.00 54 1002.6
20260901143008 78 158 11.3 14.8 0.00 0.00 0.00 56 1002.6
20260901141511 78 155 12.2 15.6 0.00 0.00 0.00 57 1002.5
20260901140007 77 148 12.2 16.5 0.00 0.00 0.00 59 1002.6
20260901134508 76 149 10.4 13.9 0.00 0.00 0.00 60 1002.5
20260901133007 75 149 9.6 12.2 0.00 0.00 0.00 61 1002.4
20260901131508 75 144 9.6 12.2 0.00 0.00 0.00 62 1002.2
20260901130004 75 144 8.7 12.2 0.00 0.00 0.00 62 1002.1
20260901124502 75 144 8.7 11.3 0.00 0.00 0.00 62 1001.8
20260901123058 75 142 10.4 13.0 0.00 0.00 0.00 61 1001.5
20260901121610 75 139 9.6 12.2 0.00 0.00 0.00 61 1001.3
20260901120106 75 139 9.6 12.2 0.00 0.00 0.00 61 1001.2
20260901114601 75 144 11.3 13.9 0.00 0.00 0.00 61 1001.2
20260901113055 76 146 10.4 14.8 0.00 0.00 0.00 60 1001.1
20260901111554 76 140 11.3 13.9 0.00 0.00 0.00 60 1001.2
20260901110152 76 153 11.3 13.9 0.00 0.00 0.00 59 1001.1
20260901104551 77 142 11.3 13.9 0.00 0.00 0.00 58 1001.0
20260901103106 77 138 8.7 12.2 0.00 0.00 0.00 58 1000.8
20260901101553 77 138 7.8 9.6 0.00 0.00 0.00 57 1000.9
20260901100055 77 147 5.2 8.7 0.00 0.00 0.00 57 1001.1
20260901094550 77 221 1.7 5.2 0.00 0.00 0.00 57 1001.0
20260901093114 78 132 3.5 7.8 0.00 0.00 0.00 56 1000.9
20260901091600 78 110 3.5 8.7 0.00 0.00 0.00 56 1000.8
20260901090039 78 119 9.6 13.0 0.00 0.00 0.00 57 1000.8
20260901084537 78 124 7.8 10.4 0.00 0.00 0.00 56 1000.8
20260901083043 78 107 6.1 8.7 0.00 0.00 0.00 56 1000.8
20260901081537 79 140 7.8 8.7 0.00 0.00 0.00 56 1000.8
20260901080043 79 171 5.2 6.1 0.00 0.00 0.00 56 1001.0
20260901074536 78 190 5.2 8.7 0.00 0.00 0.00 57 1001.0
20260901073035 78 232 4.3 6.1 0.00 0.00 0.00 58 1001.3
20260901071535 78 217 3.5 5.2 0.00 0.00 0.00 58 1001.1
20260901070037 78 216 4.3 6.1 0.00 0.00 0.00 58 1000.9
20260901064538 77 233 3.5 6.1 0.00 0.00 0.00 57 1000.8
20260901063037 78 218 4.3 7.8 0.00 0.00 0.00 57 1000.7
20260901061535 78 229 7.0 8.7 0.00 0.00 0.00 56 1000.6
20260901060034 79 194 7.8 12.2 0.00 0.00 0.00 55 1000.4
20260901054532 79 201 7.8 12.2 0.00 0.00 0.00 54 1000.3
20260901053036 80 186 15.6 20.0 0.00 0.00 0.00 50 1000.3
20260901051533 80 171 17.4 20.9 0.00 0.00 0.00 50 1000.0
20260901050031 81 165 18.2 22.6 0.00 0.00 0.00 49 999.8
20260901044531 80 173 17.4 21.7 0.00 0.00 0.00 51 999.7
20260901043031 80 171 17.4 21.7 0.00 0.00 0.00 51 999.7
20260901041601 80 173 17.4 22.6 0.00 0.00 0.00 51 999.6
20260901034558 79 187 15.6 24.3 0.00 0.00 0.00 53 999.5
20260901033057 83 196 27.8 33.0 0.00 0.00 0.00 46 999.3
20260901031534 84 177 23.5 26.9 0.00 0.00 0.00 43 999.2
20260901030030 84 163 25.2 32.2 0.00 0.00 0.00 42 998.7
20260901024531 85 169 27.8 34.8 0.00 0.00 0.00 42 998.4
20260901023033 83 167 24.3 28.7 0.00 0.00 0.00 44 997.9
20260901021538 81 189 26.1 37.4 0.00 0.00 0.00 51 997.9
20260901020037 87 183 27.8 33.9 0.00 0.00 0.00 41 997.7
20260901014537 92 138 25.2 34.8 0.00 0.00 0.00 36 997.0
20260901013036 92 145 23.5 31.3 0.00 0.00 0.00 34 996.7
20260901011531 93 132 26.1 30.4 0.00 0.00 0.00 34 996.6
20260901010039 94 124 19.1 26.1 0.00 0.00 0.00 33 996.9
20260901004530 94 129 19.1 26.1 0.00 0.00 0.00 32 996.8
20260901003029 95 138 17.4 22.6 0.00 0.00 0.00 31 996.4
20260901001533 95 139 20.9 27.8 0.00 0.00 0.00 31 996.3
20260901000029 95 139 14.8 22.6 0.00 0.00 0.00 30 996.5
20260831234539 97 147 13.9 22.6 0.00 0.00 0.00 26 996.5
20260831233021 96 137 8.7 17.4 0.00 0.00 0.00 27 996.5
20260831231529 96 124 13.0 20.0 0.00 0.00 0.00 26 996.6
20260831230029 96 90 9.6 17.4 0.00 0.00 0.00 27 996.6
20260831224528 97 140 13.0 21.7 0.00 0.00 0.00 26 996.5
20260831223024 96 49 13.0 19.1 0.00 0.00 0.00 27 996.6
20260831221536 96 138 15.6 20.9 0.00 0.00 0.00 26 996.8
20260831220027 97 92 10.4 20.0 0.00 0.00 0.00 26 997.0